Location: Sungai Dangang
(2.7500°N, 113.8333°E)
Time: 01:12:07
(UTC+00:00)

Ariane H10+ - Pass Details

Date: 27 September 2021
Orbit: 237 x 7755 km, 6.8° (Epoch: 21 October)

Event Time Altitude Azimuth Distance (km) Brightness Sun altitude
Exits shadow 19:58:39 48° 241° (WSW) 3,537 4.9 -34.3°
Maximum altitude 20:06:08 76° 169° (S) 4,061 5.4 -32.4°
Drops below altitude 10° 20:57:09 10° 86° (E) 11,571 9.2 -19.6°
Sets 21:09:16 0° 85° (E) 12,537 10.0 -16.6°
